| time (UTC) | temp F | wind direction | speed MPH | gust MPH | rain 1hr in | rain 24hr in | rain mn in | humidity % | barometer mb |
| 20260504174003 | 81 | 191 | 3.0 | 9.0 | 0.00 | 0.00 | 0.00 | 55 | 1015.2 |
| 20260504173503 | 81 | 201 | 1.0 | 9.0 | 0.00 | 0.00 | 0.00 | 54 | 1015.0 |
| 20260504173006 | 81 | 123 | 2.0 | 9.0 | 0.00 | 0.00 | 0.00 | 53 | 1015.2 |
| 20260504172502 | 81 | 87 | 2.0 | 7.0 | 0.00 | 0.00 | 0.00 | 52 | 1015.3 |
| 20260504172002 | 81 | 238 | 2.0 | 7.0 | 0.00 | 0.00 | 0.00 | 53 | 1015.5 |
| 20260504171510 | 81 | 229 | 1.0 | 7.0 | 0.00 | 0.00 | 0.00 | 55 | 1015.4 |
| 20260504171007 | 80 | 270 | 2.0 | 6.0 | 0.00 | 0.00 | 0.00 | 56 | 1015.6 |
| 20260504170502 | 81 | 120 | 2.0 | 6.0 | 0.00 | 0.00 | 0.00 | 54 | 1015.6 |
| 20260504151010 | 76 | 249 | 2.0 | 6.0 | 0.00 | 0.00 | 0.00 | 63 | 1016.0 |
| 20260504150504 | 75 | 226 | 1.0 | 5.0 | 0.00 | 0.00 | 0.00 | 64 | 1016.1 |
| 20260504141004 | 72 | 243 | 0.0 | 3.0 | 0.00 | 0.00 | 0.00 | 67 | 1016.4 |
| 20260504140504 | 71 | 174 | 0.0 | 3.0 | 0.00 | 0.00 | 0.00 | 69 | 1016.2 |
| 20260504130503 | 63 | 205 | 0.0 | 2.0 | 0.00 | 0.00 | 0.00 | 81 | 1016.0 |
| 20260504110507 | 56 | 133 | 0.0 | 0.0 | 0.00 | 0.00 | 0.00 | 88 | 1015.9 |
| 20260504100506 | 56 | 133 | 0.0 | 0.0 | 0.00 | 0.00 | 0.00 | 87 | 1016.2 |
| 20260504081524 | 57 | 134 | 0.0 | 0.0 | 0.00 | 0.00 | 0.00 | 84 | 1016.8 |
| 20260504081004 | 57 | 134 | 0.0 | 0.0 | 0.00 | 0.00 | 0.00 | 83 | 1016.9 |
| 20260504080504 | 57 | 134 | 0.0 | 0.0 | 0.00 | 0.00 | 0.00 | 83 | 1017.1 |
| 20260504050509 | 60 | 150 | 0.0 | 0.0 | 0.00 | 0.00 | 0.00 | 77 | 1018.6 |
| 20260504045509 | 60 | 150 | 0.0 | 0.0 | 0.00 | 0.00 | 0.00 | 78 | 1018.6 |
| 20260504045007 | 60 | 150 | 0.0 | 0.0 | 0.00 | 0.00 | 0.00 | 78 | 1018.5 |
| 20260504044525 | 60 | 150 | 0.0 | 0.0 | 0.00 | 0.00 | 0.00 | 78 | 1018.8 |
| 20260504044008 | 60 | 150 | 0.0 | 0.0 | 0.00 | 0.00 | 0.00 | 77 | 1018.8 |
| 20260504043508 | 61 | 150 | 0.0 | 0.0 | 0.00 | 0.00 | 0.00 | 76 | 1018.7 |
| 20260504043038 | 61 | 150 | 0.0 | 0.0 | 0.00 | 0.00 | 0.00 | 76 | 1018.7 |
| 20260504042508 | 61 | 150 | 0.0 | 0.0 | 0.00 | 0.00 | 0.00 | 77 | 1018.8 |
| 20260504042003 | 61 | 150 | 0.0 | 0.0 | 0.00 | 0.00 | 0.00 | 75 | 1018.8 |
| 20260504041521 | 61 | 152 | 0.0 | 0.0 | 0.00 | 0.00 | 0.00 | 75 | 1018.7 |
| 20260504041007 | 62 | 152 | 0.0 | 0.0 | 0.00 | 0.00 | 0.00 | 74 | 1018.8 |
| 20260504040506 | 62 | 152 | 0.0 | 0.0 | 0.00 | 0.00 | 0.00 | 72 | 1018.7 |
| 20260504040024 | 63 | 152 | 0.0 | 0.0 | 0.00 | 0.00 | 0.00 | 72 | 1018.6 |
| 20260504035508 | 63 | 152 | 0.0 | 0.0 | 0.00 | 0.00 | 0.00 | 71 | 1018.5 |
| 20260504035007 | 63 | 152 | 0.0 | 0.0 | 0.00 | 0.00 | 0.00 | 71 | 1018.6 |
| 20260504034526 | 63 | 152 | 0.0 | 0.0 | 0.00 | 0.00 | 0.00 | 70 | 1018.7 |
| 20260504034010 | 64 | 152 | 0.0 | 0.0 | 0.00 | 0.00 | 0.00 | 69 | 1018.8 |
| 20260504033511 | 64 | 152 | 0.0 | 0.0 | 0.00 | 0.00 | 0.00 | 69 | 1018.8 |
| 20260504033030 | 64 | 152 | 0.0 | 0.0 | 0.00 | 0.00 | 0.00 | 68 | 1018.9 |
| 20260504032509 | 65 | 152 | 0.0 | 0.0 | 0.00 | 0.00 | 0.00 | 67 | 1018.7 |
| 20260504032010 | 65 | 152 | 0.0 | 0.0 | 0.00 | 0.00 | 0.00 | 67 | 1018.6 |
| 20260504031526 | 65 | 152 | 0.0 | 0.0 | 0.00 | 0.00 | 0.00 | 66 | 1018.6 |
| 20260504031013 | 65 | 150 | 0.0 | 0.0 | 0.00 | 0.00 | 0.00 | 66 | 1018.6 |
| 20260504030511 | 66 | 143 | 0.0 | 0.0 | 0.00 | 0.00 | 0.00 | 65 | 1018.6 |
| 20260504030019 | 66 | 150 | 0.0 | 1.0 | 0.00 | 0.00 | 0.00 | 65 | 1018.7 |
| 20260504025507 | 66 | 216 | 0.0 | 1.0 | 0.00 | 0.00 | 0.00 | 64 | 1018.6 |
| 20260504025008 | 66 | 239 | 0.0 | 0.0 | 0.00 | 0.00 | 0.00 | 64 | 1018.5 |
| 20260504024522 | 66 | 203 | 0.0 | 1.0 | 0.00 | 0.00 | 0.00 | 63 | 1018.6 |
| 20260504024008 | 67 | 203 | 0.0 | 2.0 | 0.00 | 0.00 | 0.00 | 62 | 1018.7 |
| 20260504023508 | 67 | 198 | 0.0 | 4.0 | 0.00 | 0.00 | 0.00 | 61 | 1018.7 |
| 20260504023028 | 67 | 179 | 0.0 | 4.0 | 0.00 | 0.00 | 0.00 | 61 | 1018.6 |
| 20260504022504 | 67 | 150 | 0.0 | 2.0 | 0.00 | 0.00 | 0.00 | 60 | 1018.7 |
| 20260504022004 | 68 | 207 | 0.0 | 2.0 | 0.00 | 0.00 | 0.00 | 60 | 1018.6 |
| 20260504021515 | 68 | 176 | 0.0 | 2.0 | 0.00 | 0.00 | 0.00 | 59 | 1018.5 |
| 20260504021004 | 68 | 199 | 0.0 | 2.0 | 0.00 | 0.00 | 0.00 | 58 | 1018.5 |
| 20260504020504 | 68 | 239 | 0.0 | 2.0 | 0.00 | 0.00 | 0.00 | 58 | 1018.5 |
| 20260504020012 | 68 | 290 | 0.0 | 2.0 | 0.00 | 0.00 | 0.00 | 57 | 1018.4 |
| 20260504015504 | 68 | 168 | 1.0 | 2.0 | 0.00 | 0.00 | 0.00 | 57 | 1018.5 |
| 20260504015008 | 68 | 240 | 0.0 | 2.0 | 0.00 | 0.00 | 0.00 | 57 | 1018.5 |
| 20260504014518 | 69 | 175 | 0.0 | 2.0 | 0.00 | 0.00 | 0.00 | 56 | 1018.5 |
| 20260504014006 | 69 | 224 | 0.0 | 2.0 | 0.00 | 0.00 | 0.00 | 55 | 1018.4 |
| 20260504013510 | 69 | 208 | 0.0 | 2.0 | 0.00 | 0.00 | 0.00 | 55 | 1018.3 |
| 20260504013005 | 69 | 245 | 0.0 | 2.0 | 0.00 | 0.00 | 0.00 | 54 | 1018.4 |
| 20260504012504 | 70 | 219 | 0.0 | 2.0 | 0.00 | 0.00 | 0.00 | 53 | 1018.4 |
| 20260504012004 | 70 | 233 | 0.0 | 2.0 | 0.00 | 0.00 | 0.00 | 53 | 1018.4 |
| 20260504011518 | 70 | 148 | 0.0 | 2.0 | 0.00 | 0.00 | 0.00 | 52 | 1018.3 |
| 20260504011003 | 71 | 106 | 0.0 | 3.0 | 0.00 | 0.00 | 0.00 | 51 | 1018.3 |
| 20260504010504 | 71 | 237 | 1.0 | 3.0 | 0.00 | 0.00 | 0.00 | 51 | 1018.3 |
| 20260504010015 | 71 | 165 | 0.0 | 4.0 | 0.00 | 0.00 | 0.00 | 50 | 1018.3 |
| 20260504005504 | 71 | 263 | 0.0 | 4.0 | 0.00 | 0.00 | 0.00 | 50 | 1018.3 |
| 20260504005009 | 72 | 229 | 0.0 | 3.0 | 0.00 | 0.00 | 0.00 | 50 | 1018.3 |
| 20260504004517 | 72 | 198 | 0.0 | 5.0 | 0.00 | 0.00 | 0.00 | 48 | 1018.4 |
| 20260504004005 | 72 | 240 | 0.0 | 5.0 | 0.00 | 0.00 | 0.00 | 48 | 1018.4 |
| 20260504003508 | 73 | 221 | 1.0 | 4.0 | 0.00 | 0.00 | 0.00 | 48 | 1018.3 |
| 20260504003023 | 73 | 179 | 0.0 | 4.0 | 0.00 | 0.00 | 0.00 | 48 | 1018.3 |
| 20260504002508 | 73 | 234 | 0.0 | 4.0 | 0.00 | 0.00 | 0.00 | 46 | 1018.3 |
| 20260504002014 | 74 | 201 | 1.0 | 4.0 | 0.00 | 0.00 | 0.00 | 45 | 1018.4 |
| 20260504001504 | 74 | 160 | 0.0 | 4.0 | 0.00 | 0.00 | 0.00 | 46 | 1018.3 |
| 20260504001004 | 74 | 172 | 0.0 | 4.0 | 0.00 | 0.00 | 0.00 | 44 | 1018.2 |
| 20260504000503 | 75 | 167 | 0.0 | 3.0 | 0.00 | 0.00 | 0.00 | 45 | 1018.3 |
| 20260504000008 | 76 | 210 | 0.0 | 5.0 | 0.00 | 0.00 | 0.00 | 45 | 1018.3 |
| 20260503235503 | 76 | 209 | 0.0 | 5.0 | 0.00 | 0.00 | 0.00 | 42 | 1018.3 |
| 20260503235004 | 76 | 194 | 2.0 | 5.0 | 0.00 | 0.00 | 0.00 | 41 | 1018.4 |
| 20260503234515 | 76 | 196 | 0.0 | 5.0 | 0.00 | 0.00 | 0.00 | 41 | 1018.3 |
| 20260503234007 | 76 | 200 | 0.0 | 4.0 | 0.00 | 0.00 | 0.00 | 42 | 1018.3 |
| 20260503233503 | 76 | 177 | 1.0 | 5.0 | 0.00 | 0.00 | 0.00 | 41 | 1018.5 |
| 20260503233016 | 76 | 108 | 1.0 | 8.0 | 0.00 | 0.00 | 0.00 | 43 | 1018.5 |
| 20260503232506 | 76 | 173 | 3.0 | 8.0 | 0.00 | 0.00 | 0.00 | 41 | 1018.6 |
| 20260503232007 | 76 | 203 | 0.0 | 6.0 | 0.00 | 0.00 | 0.00 | 42 | 1018.6 |
| 20260503231525 | 76 | 184 | 2.0 | 6.0 | 0.00 | 0.00 | 0.00 | 41 | 1018.5 |
| 20260503231007 | 76 | 195 | 2.0 | 6.0 | 0.00 | 0.00 | 0.00 | 40 | 1018.6 |
| 20260503230508 | 76 | 13 | 1.0 | 5.0 | 0.00 | 0.00 | 0.00 | 41 | 1018.6 |
| 20260503230008 | 76 | 24 | 0.0 | 5.0 | 0.00 | 0.00 | 0.00 | 41 | 1018.5 |
| 20260503225508 | 77 | 34 | 0.0 | 5.0 | 0.00 | 0.00 | 0.00 | 42 | 1018.5 |
| 20260503225005 | 77 | 128 | 0.0 | 5.0 | 0.00 | 0.00 | 0.00 | 41 | 1018.7 |
| 20260503224515 | 77 | 72 | 0.0 | 5.0 | 0.00 | 0.00 | 0.00 | 40 | 1018.8 |
| 20260503224005 | 78 | 130 | 1.0 | 5.0 | 0.00 | 0.00 | 0.00 | 42 | 1018.7 |
| 20260503223508 | 78 | 203 | 2.0 | 6.0 | 0.00 | 0.00 | 0.00 | 39 | 1018.6 |
| 20260503223018 | 78 | 260 | 2.0 | 6.0 | 0.00 | 0.00 | 0.00 | 39 | 1018.9 |
| 20260503222506 | 79 | 139 | 0.0 | 5.0 | 0.00 | 0.00 | 0.00 | 41 | 1018.9 |
| 20260503222008 | 78 | 141 | 1.0 | 7.0 | 0.00 | 0.00 | 0.00 | 41 | 1019.1 |
| 20260503221523 | 79 | 154 | 1.0 | 7.0 | 0.00 | 0.00 | 0.00 | 40 | 1019.1 |
| 20260503221011 | 79 | 63 | 1.0 | 6.0 | 0.00 | 0.00 | 0.00 | 39 | 1019.1 |
| 20260503220507 | 79 | 7 | 0.0 | 6.0 | 0.00 | 0.00 | 0.00 | 39 | 1018.9 |
| 20260503220026 | 80 | 191 | 2.0 | 6.0 | 0.00 | 0.00 | 0.00 | 37 | 1019.1 |
| 20260503215510 | 80 | 141 | 0.0 | 4.0 | 0.00 | 0.00 | 0.00 | 38 | 1019.0 |
| 20260503215009 | 80 | 191 | 0.0 | 7.0 | 0.00 | 0.00 | 0.00 | 38 | 1019.1 |
| 20260503214506 | 81 | 238 | 1.0 | 7.0 | 0.00 | 0.00 | 0.00 | 36 | 1019.1 |
| 20260503214007 | 82 | 160 | 0.0 | 3.0 | 0.00 | 0.00 | 0.00 | 32 | 1019.1 |
| 20260503213506 | 83 | 84 | 1.0 | 6.0 | 0.00 | 0.00 | 0.00 | 32 | 1019.2 |
| 20260503213014 | 82 | 141 | 0.0 | 6.0 | 0.00 | 0.00 | 0.00 | 32 | 1019.4 |
| 20260503212504 | 83 | 164 | 1.0 | 5.0 | 0.00 | 0.00 | 0.00 | 30 | 1019.4 |
| 20260503212007 | 83 | 148 | 0.0 | 2.0 | 0.00 | 0.00 | 0.00 | 31 | 1019.6 |
| 20260503211520 | 83 | 145 | 0.0 | 4.0 | 0.00 | 0.00 | 0.00 | 31 | 1019.7 |
| 20260503211006 | 83 | 249 | 1.0 | 4.0 | 0.00 | 0.00 | 0.00 | 29 | 1019.7 |
| 20260503210507 | 83 | 25 | 0.0 | 2.0 | 0.00 | 0.00 | 0.00 | 31 | 1019.7 |
| 20260503210022 | 83 | 228 | 0.0 | 9.0 | 0.00 | 0.00 | 0.00 | 32 | 1019.9 |
| 20260503205509 | 83 | 148 | 1.0 | 9.0 | 0.00 | 0.00 | 0.00 | 30 | 1019.9 |
| 20260503205009 | 83 | 228 | 0.0 | 4.0 | 0.00 | 0.00 | 0.00 | 30 | 1019.9 |
| 20260503204526 | 83 | 140 | 0.0 | 3.0 | 0.00 | 0.00 | 0.00 | 30 | 1020.0 |
| 20260503204008 | 83 | 240 | 1.0 | 4.0 | 0.00 | 0.00 | 0.00 | 30 | 1020.1 |
| 20260503203510 | 83 | 137 | 1.0 | 5.0 | 0.00 | 0.00 | 0.00 | 30 | 1020.1 |
| 20260503203009 | 83 | 124 | 1.0 | 7.0 | 0.00 | 0.00 | 0.00 | 32 | 1020.1 |
| 20260503202506 | 83 | 229 | 1.0 | 7.0 | 0.00 | 0.00 | 0.00 | 28 | 1020.3 |
| 20260503202007 | 83 | 168 | 0.0 | 3.0 | 0.00 | 0.00 | 0.00 | 30 | 1020.4 |
| 20260503201514 | 83 | 167 | 0.0 | 3.0 | 0.00 | 0.00 | 0.00 | 32 | 1020.5 |
| 20260503201005 | 83 | 166 | 0.0 | 4.0 | 0.00 | 0.00 | 0.00 | 33 | 1020.5 |
| 20260503200507 | 82 | 137 | 0.0 | 4.0 | 0.00 | 0.00 | 0.00 | 30 | 1020.6 |
| 20260503200019 | 82 | 167 | 0.0 | 4.0 | 0.00 | 0.00 | 0.00 | 30 | 1020.7 |
| 20260503195508 | 82 | 155 | 1.0 | 8.0 | 0.00 | 0.00 | 0.00 | 30 | 1020.7 |
| 20260503195010 | 83 | 168 | 0.0 | 8.0 | 0.00 | 0.00 | 0.00 | 30 | 1020.7 |
| 20260503194525 | 83 | 139 | 2.0 | 7.0 | 0.00 | 0.00 | 0.00 | 32 | 1020.8 |
| 20260503194009 | 82 | 141 | 1.0 | 4.0 | 0.00 | 0.00 | 0.00 | 32 | 1020.8 |
| 20260503193507 | 82 | 184 | 0.0 | 4.0 | 0.00 | 0.00 | 0.00 | 30 | 1020.9 |
| 20260503193023 | 83 | 230 | 0.0 | 5.0 | 0.00 | 0.00 | 0.00 | 27 | 1020.9 |
| 20260503192507 | 83 | 263 | 1.0 | 5.0 | 0.00 | 0.00 | 0.00 | 28 | 1021.0 |
| 20260503192007 | 84 | 82 | 0.0 | 4.0 | 0.00 | 0.00 | 0.00 | 29 | 1021.0 |
| 20260503191536 | 84 | 248 | 1.0 | 4.0 | 0.00 | 0.00 | 0.00 | 29 | 1021.2 |
| 20260503191007 | 84 | 169 | 0.0 | 5.0 | 0.00 | 0.00 | 0.00 | 34 | 1021.3 |
| 20260503190504 | 83 | 62 | 0.0 | 5.0 | 0.00 | 0.00 | 0.00 | 31 | 1021.3 |
| 20260503190015 | 83 | 213 | 0.0 | 1.0 | 0.00 | 0.00 | 0.00 | 33 | 1021.4 |
| 20260503185506 | 83 | 120 | 0.0 | 4.0 | 0.00 | 0.00 | 0.00 | 29 | 1021.4 |
| 20260503185006 | 83 | 58 | 0.0 | 4.0 | 0.00 | 0.00 | 0.00 | 27 | 1021.6 |
| 20260503184519 | 83 | 155 | 0.0 | 3.0 | 0.00 | 0.00 | 0.00 | 30 | 1021.7 |
| 20260503184010 | 82 | 18 | 0.0 | 3.0 | 0.00 | 0.00 | 0.00 | 32 | 1021.8 |
| 20260503183508 | 82 | 50 | 1.0 | 3.0 | 0.00 | 0.00 | 0.00 | 32 | 1021.9 |
| 20260503183024 | 82 | 165 | 0.0 | 3.0 | 0.00 | 0.00 | 0.00 | 30 | 1021.9 |
| 20260503182507 | 82 | 155 | 0.0 | 5.0 | 0.00 | 0.00 | 0.00 | 33 | 1022.0 |
| 20260503182011 | 81 | 71 | 0.0 | 5.0 | 0.00 | 0.00 | 0.00 | 34 | 1022.1 |
| 20260503181529 | 81 | 60 | 0.0 | 3.0 | 0.00 | 0.00 | 0.00 | 31 | 1022.1 |
| 20260503181011 | 80 | 344 | 0.0 | 6.0 | 0.00 | 0.00 | 0.00 | 32 | 1022.2 |
| 20260503180515 | 80 | 89 | 2.0 | 6.0 | 0.00 | 0.00 | 0.00 | 37 | 1022.3 |
| 20260503180037 | 81 | 209 | 2.0 | 5.0 | 0.00 | 0.00 | 0.00 | 34 | 1022.4 |
| 20260503175507 | 80 | 225 | 0.0 | 4.0 | 0.00 | 0.00 | 0.00 | 37 | 1022.5 |
| 20260503175006 | 79 | 273 | 1.0 | 5.0 | 0.00 | 0.00 | 0.00 | 34 | 1022.5 |
| 20260503174520 | 80 | 126 | 1.0 | 5.0 | 0.00 | 0.00 | 0.00 | 35 | 1022.7 |